WA6MHA-15 Weather Reports


Display with metric or nautical units.
time (UTC)temp
F
wind
direction
speed
MPH
gust
MPH
rain 1hr
in
rain 24hr
in
rain mn
in
humidity
%
barometer
mb
20180620183038 78 271 7.0 9.0 0.00 0.00 0.00 65
20180620181827 77 39 2.0 8.0 0.00 0.00 0.00 65
20180620181526 77 36 0.0 10.0 0.00 0.00 0.00 65
20180620175410 75 213 1.0 8.0 0.00 0.00 0.00 69
20180620175408 75 213 1.0 8.0 0.00 0.00 0.00 69
20180620173255 75 230 3.0 9.0 0.00 0.00 0.00 71
20180620171439 73 33 1.0 8.0 0.00 0.00 0.00 74
20180620170234 73 219 4.0 8.0 0.00 0.00 0.00 75
20180620170232 73 219 4.0 8.0 0.00 0.00 0.00 75
20180620165929 72 275 3.0 8.0 0.00 0.00 0.00 76
20180620165024 71 251 0.0 6.0 0.00 0.00 0.00 79
20180620163509 70 246 0.0 6.0 0.00 0.00 0.00 81
20180620162906 69 271 0.0 6.0 0.00 0.00 0.00 82
20180620161657 68 168 0.0 6.0 0.00 0.00 0.00 84
20180620161353 67 64 0.0 6.0 0.00 0.00 0.00 85
20180620155839 68 232 1.0 7.0 0.00 0.00 0.00 85
20180620153718 67 219 4.0 4.0 0.00 0.00 0.00 87
20180620151259 65 320 0.0 3.0 0.00 0.00 0.00 93
20180620145438 64 268 0.0 2.0 0.00 0.00 0.00 96
20180620145138 63 53 0.0 0.0 0.00 0.00 0.00 97
20180620145136 63 53 0.0 0.0 0.00 0.00 0.00 97
20180620142411 59 53 0.0 0.0 0.00 0.00 0.00 99
20180620141804 59 53 0.0 0.0 0.00 0.00 0.00 100
20180620141201 59 53 0.0 0.0 0.00 0.00 0.00 100
20180620141159 59 53 0.0 0.0 0.00 0.00 0.00 100
20180620140253 58 53 0.0 0.0 0.00 0.00 0.00 100
20180620132313 55 53 0.0 0.0 0.00 0.00 0.00 100
20180620123200 55 53 0.0 0.0 0.00 0.00 0.00 100
20180620121955 55 53 0.0 0.0 0.00 0.00 0.00 100
20180620115946 54 53 0.0 0.0 0.00 0.00 0.00 100
20180620115144 54 53 0.0 0.0 0.00 0.00 0.00 100
20180620115142 54 53 0.0 0.0 0.00 0.00 0.00 100
20180620114739 54 53 0.0 0.0 0.00 0.00 0.00 100
20180620112731 55 53 0.0 0.0 0.00 0.00 0.00 100
20180620111526 55 53 0.0 0.0 0.00 0.00 0.00 100
20180620105517 56 53 0.0 0.0 0.00 0.00 0.00 100
20180620105115 56 53 0.0 0.0 0.00 0.00 0.00 100
20180620104714 56 53 0.0 0.0 0.00 0.00 0.00 100
20180620102304 56 53 0.0 0.0 0.00 0.00 0.00 100
20180620095450 55 53 0.0 0.0 0.00 0.00 0.00 100
20180620083415 58 97 0.0 2.0 0.00 0.00 0.00 100
20180620072206 57 94 0.0 0.0 0.00 0.00 0.00
20180620072143 57 94 0.0 0.0 0.00 0.00 0.00
20180620071340 57 94 0.0 0.0 0.00 0.00 0.00
20180620065733 57 94 0.0 0.0 0.00 0.00 0.00
20180620062520 59 94 0.0 0.0 0.00 0.00 0.00
20180620061716 59 94 0.0 0.0 0.00 0.00 0.00
20180620054502 60 56 0.0 0.0 0.00 0.00 0.00
20180620053257 60 81 1.0 0.0 0.00 0.00 0.00
20180620044838 60 67 0.0 0.0 0.00 0.00 0.00
20180620044036 60 67 0.0 0.0 0.00 0.00 0.00
20180620041626 61 127 0.0 0.0 0.00 0.00 0.00
20180620041624 61 127 0.0 0.0 0.00 0.00 0.00
20180620041224 61 127 0.0 0.0 0.00 0.00 0.00
20180620040018 62 127 0.0 0.0 0.00 0.00 0.00
20180620034813 63 127 0.0 2.0 0.00 0.00 0.00
20180620032421 65 278 2.0 3.0 0.00 0.00 0.00
20180620031513 66 212 2.0 2.0 0.00 0.00 0.00
20180620031210 66 282 0.0 3.0 0.00 0.00 0.00
20180620024747 68 258 0.0 3.0 0.00 0.00 0.00
20180620022021 69 247 1.0 6.0 0.00 0.00 0.00
20180620021718 69 234 4.0 5.0 0.00 0.00 0.00
20180620021415 70 119 0.0 5.0 0.00 0.00 0.00
20180620014046 72 275 3.0 8.0 0.00 0.00 0.00
20180620014044 72 275 3.0 8.0 0.00 0.00 0.00
20180620010414 74 355 1.0 8.0 0.00 0.00 0.00
20180620010411 74 355 1.0 8.0 0.00 0.00 0.00
20180620010108 74 174 3.0 8.0 0.00 0.00 0.00
20180620005502 74 289 7.0 6.0 0.00 0.00 0.00
20180620004251 74 168 1.0 7.0 0.00 0.00 0.00
20180620003040 76 146 0.0 7.0 0.00 0.00 0.00
20180620002435 75 253 2.0 7.0 0.00 0.00 0.00
20180620001526 76 274 6.0 7.0 0.00 0.00 0.00
20180620000921 76 323 2.0 9.0 0.00 0.00 0.00 63
20180620000620 76 265 5.0 11.0 0.00 0.00 0.00 63
20180620000617 76 265 5.0 11.0 0.00 0.00 0.00 63
20180620000013 76 268 7.0 9.0 0.00 0.00 0.00 64
20180619235106 78 330 7.0 9.0 0.00 0.00 0.00 62
20180619234502 77 2 3.0 13.0 0.00 0.00 0.00 61
20180619230837 78 26 0.0 10.0 0.00 0.00 0.00 60
20180619230534 79 300 3.0 11.0 0.00 0.00 0.00 59
20180619225627 80 303 2.0 6.0 0.00 0.00 0.00 57
20180619225021 79 295 4.0 10.0 0.00 0.00 0.00 59
20180619223206 78 293 5.0 10.0 0.00 0.00 0.00 59
20180619215536 78 53 4.0 9.0 0.00 0.00 0.00 60
20180619215234 77 230 4.0 9.0 0.00 0.00 0.00 60
20180619214630 78 271 2.0 9.0 0.00 0.00 0.00 61
20180619214024 78 215 3.0 6.0 0.00 0.00 0.00 61
20180619211001 77 225 3.0 9.0 0.00 0.00 0.00 61
20180619210658 77 255 3.0 11.0 0.00 0.00 0.00 60
20180619210355 78 144 6.0 11.0 0.00 0.00 0.00 59
20180619203634 77 279 0.0 15.0 0.00 0.00 0.00 61
20180619200915 78 316 6.0 10.0 0.00 0.00 0.00 59
20180619200912 78 316 6.0 10.0 0.00 0.00 0.00 59
20180619200611 78 279 2.0 14.0 0.00 0.00 0.00 59
20180619194455 78 286 7.0 11.0 0.00 0.00 0.00 58
20180619194452 78 286 7.0 11.0 0.00 0.00 0.00 58
20180619193545 78 330 7.0 10.0 0.00 0.00 0.00 59
20180619193245 78 323 3.0 10.0 0.00 0.00 0.00 58
20180619193243 78 323 3.0 10.0 0.00 0.00 0.00 58
20180619192941 77 316 1.0 10.0 0.00 0.00 0.00 59
20180619191429 76 277 6.0 13.0 0.00 0.00 0.00 60
20180619190520 76 28 4.0 13.0 0.00 0.00 0.00 62